Home > Weather > Växjö > Past weeks

Flag for Sweden Past Weather in Växjö, Sweden — Yesterday and Last 2 Weeks

Now
68 °F

Sunny.


Feels Like: 68 °F
Forecast: 49 / 67 °F
Wind: 14 mph from Southwest

Location: Vaxjo Airport

Current Time: Jun 27, 2016 at 1:28:15 PM

Latest Report: Jun 27, 2016 at 12:50 PM


Visibility: 10 mi

Pressure: 29.92 "Hg

Humidity: 49%

Dew Point: 48 °F

Location of VäxjöLocation

Past Weather in Växjö — Graph

°F

Växjö Temperature Yesterday

Maximum temperature yesterday: 75 °F (at 12:20 PM)
Minimum temperature yesterday: 55 °F (at 10:50 PM)
Average temperature yesterday: 67 °F

High & Low Weather Summary for the Past Weeks

 TemperatureHumidityPressure
High88 °F (Jun 25, 5:20 PM)100% (Jun 13, 1:50 AM)30.24 "Hg (Jun 13, 1:50 AM)
Low36 °F (Jun 13, 4:50 AM)28% (Jun 12, 3:50 PM)29.47 "Hg (Jun 17, 5:50 PM)
Average62 °F72%29.86 "Hg
* Reported Jun 12 12:50 PM — Jun 27 12:20 PM, Växjö, Weather by CustomWeather, © 2016

Note: Actual official high and low records may vary slightly from our data, if they occured in-between our weather recording intervals... More about our weather records

Advertising

Växjö Weather History for the Previous 24 Hours

Scroll right to see more
 ConditionsComfort  
Time TempWeatherWind HumidityBarometerVisibility
12:20 PM
Mon, Jun 27
63 °FPartly sunny.13 mph59%29.92 "HgN/A
11:50 AM64 °FBroken clouds.13 mph56%29.92 "HgN/A
11:20 AM64 °FBroken clouds.13 mph56%29.92 "HgN/A
10:50 AM66 °FScattered clouds.14 mph52%29.92 "HgN/A
10:20 AM66 °FPassing clouds.15 mph52%29.95 "HgN/A
9:50 AM66 °FPassing clouds.15 mph49%29.95 "HgN/A
9:20 AM64 °FSunny.13 mph56%29.95 "Hg10 mi
8:50 AM63 °FSunny.12 mph64%29.95 "Hg10 mi
8:20 AM63 °FSunny.12 mph68%29.95 "Hg10 mi
7:50 AM61 °FSunny.12 mph72%29.95 "Hg10 mi
7:20 AM59 °FSunny.10 mph77%29.95 "Hg10 mi
6:50 AM57 °FSunny.8 mph88%29.92 "Hg10 mi
6:20 AM55 °FSunny.7 mph94%29.92 "Hg10 mi
5:50 AM54 °FSunny.7 mph94%29.92 "Hg10 mi
5:20 AM50 °FCool.6 mph100%29.95 "HgN/A
4:50 AM50 °FCool.7 mph100%29.95 "HgN/A
4:20 AM50 °FCool.7 mph94%29.95 "HgN/A
3:50 AM48 °FCool.6 mph100%29.92 "HgN/A
3:20 AM48 °FCool.5 mph100%29.92 "HgN/A
2:50 AM54 °FCool.5 mph88%29.92 "HgN/A
2:20 AM52 °FCool.6 mph88%29.92 "HgN/A
1:50 AM54 °FCool.5 mph88%29.92 "HgN/A
1:20 AM52 °FCool.6 mph94%29.95 "HgN/A
12:50 AM54 °FClear.6 mph88%29.92 "Hg10 mi
12:20 AM54 °FClear.6 mph88%29.95 "Hg10 mi
11:50 PM
Sun, Jun 26
55 °FClear.5 mph82%29.95 "Hg10 mi
11:20 PM55 °FClear.6 mph82%29.92 "Hg10 mi
10:50 PM55 °FSunny.5 mph82%29.92 "Hg10 mi
10:20 PM57 °FSunny.5 mph82%29.92 "Hg10 mi
9:50 PM61 °FSunny.3 mph72%29.92 "Hg10 mi
9:20 PM63 °FSunny.8 mph68%29.92 "Hg10 mi
8:50 PM64 °FPassing clouds.8 mph64%29.92 "HgN/A
8:20 PM66 °FPassing clouds.10 mph60%29.92 "HgN/A
7:50 PM66 °FScattered clouds.8 mph60%29.89 "HgN/A
7:20 PM64 °FOvercast.8 mph68%29.89 "HgN/A
6:50 PM66 °FPartly sunny.9 mph64%29.89 "HgN/A
6:20 PM66 °FPartly sunny.9 mph64%29.89 "HgN/A
5:50 PM64 °FPartly sunny.10 mph68%29.89 "HgN/A
5:20 PM64 °FPartly sunny.13 mph68%29.89 "HgN/A
4:50 PM66 °FPartly sunny.14 mph64%29.89 "HgN/A
4:20 PM64 °FPartly sunny.12 mph68%29.89 "HgN/A
3:50 PM64 °FPartly sunny.15 mph68%29.89 "HgN/A
3:20 PM64 °FLight rain. Overcast.15 mph73%29.86 "HgN/A
2:50 PM63 °FOvercast.13 mph77%29.86 "HgN/A
2:20 PM64 °FOvercast.14 mph78%29.86 "HgN/A
1:50 PM64 °FMostly cloudy.15 mph78%29.86 "HgN/A
1:20 PM66 °FCloudy.12 mph78%29.83 "HgN/A
Weather by CustomWeather, © 2016

See weather overviewHow to use our weather pages